STARLINK-2104 (47384 NORAD) Tracking and Keplerian Element Data
This shows tracking and keplerian element data for the satellite.
Feedback or suggestion? Click here.
Element | Value |
Catalog | 47384 |
Name | STARLINK-2104 |
Epoch Orbit | 1436 |
Epoch Day | 106.25002315 |
Epoch Year | 2021 |
RAAN | 150.7362 |
Inclination | 53.0527 |
Eccentricity | 0.0004296 |
Argument of Perigee | 13.622 |
Mean Anonmoly | 60.5155 |
Mean Motion | 15.62778981 |
Decay Rate | -6.135E-05 |
L1 | 1 47384U 21005AM 21106.25002315 -.00006135 00000-0 -61084-4 0 9992 |
L2 | 2 47384 53.0527 150.7362 0004296 13.6220 60.5155 15.62778981 14369 |
Live tracking and technical data element details for STARLINK-2104 (NORAD 47384). STARLINK-2104 can be tracked NOW for your location showing map with azimuth and elevation plus other details from your city location.
Track the satellite on the map from your city or location and see movement details for azimuth, elevation, latitude, longitude, range, height, and movement on the map or in text.
IsCatalogInMostPopularTable: catalog: 47384, numindb: 18
Update: records affected: 1
GetName: 47384 STARLINK-2104
Hit Count: updated at: Fri, 16 Apr 2021 12:19:33 GMT